Preview of NWS' New Version of Forecast
This preview is not operational and should not be used for support decisions.

Regional Weather Roundup (RWR)

Issued by National Weather Service (NWS)

                            
000
ASUS43 KTOP 180659
RWRKS 

WEATHER ROUNDUP FOR KANSAS
NATIONAL WEATHER SERVICE GOODLAND KS
200 AM CDT MON MAR 18 2019

NOTE:  "FAIR" INDICATES FEW OR NO CLOUDS BELOW 12,000 FEET WITH NO
SIGNIFICANT WEATHER AND/OR OBSTRUCTIONS TO VISIBILITY.

KSZ001>006-013>018-027>032-041>047-180800-
NORTHWEST KANSAS
  
CITY           SKY/WX    TMP DP  RH WIND       PRES   REMARKS
GOODLAND       CLEAR     28  24  85 NE7       30.38R                  
HAYS           PTCLDY    38  31  76 N13       30.36R WCI  30          
HILL CITY      CLEAR     35  29  78 N12       30.39R WCI  27          
RUSSELL        CLEAR     37  32  82 N7        30.34S                  
$$

KSZ061>065-074>080-084>089-180800-
SOUTHWEST KANSAS
  
CITY           SKY/WX    TMP DP  RH WIND       PRES   REMARKS
DODGE CITY     CLEAR     39  30  70 E6        30.31R                  
GARDEN CITY    PTCLDY    39  32  76 E7        30.30S                  
GREAT BEND     CLEAR     39  29  67 E6        30.32S                  
LIBERAL        CLEAR     42  32  67 E9        30.28F                  
$$

KSZ066>073-081>083-090>101-180800-
SOUTHEAST KANSAS
  
CITY           SKY/WX    TMP DP  RH WIND       PRES   REMARKS
CHANUTE        CLOUDY    46  30  53 NE7       30.36R                  
COFFEYVILLE    CLOUDY    46  33  60 E5        30.33R                  
HUTCHINSON     CLEAR     41  28  60 SE8       30.31F                  
MEDICINE LODGE   N/A     49  32  52 NE8       30.30R                  
NEWTON         PTCLDY    39  28  64 E12       30.33F WCI  32          
PARSONS        CLOUDY    47  31  53 VRB7      30.34S                  
WICHITA INTL   CLOUDY    46  26  45 E10       30.32S                  
WICHITA JABRA  CLOUDY    42  28  57 E9        30.33S                  
WICHITA MCCONL CLOUDY    45  27  49 E9        30.32F                  
WINFIELD       CLOUDY    47  30  51 NE6       30.33R                  
$$

KSZ007>012-019>026-033>040-048>060-102>105-180800-
NORTHEAST KANSAS
  
CITY           SKY/WX    TMP DP  RH WIND       PRES   REMARKS
CONCORDIA      CLOUDY    38  31  76 NE8       30.38R                  
EMPORIA        PTCLDY    36  27  69 SE7       30.33F                  
LAWRENCE       CLEAR     37  27  67 SE3       30.37F                  
MANHATTAN      PTCLDY    39  27  62 N7        30.38R                  
OLATHE IND     PTCLDY    40  26  57 E5        30.37S                  
OLATHE EXE     MOCLDY    39  24  55 E3        30.36F                  
SALINA         PTCLDY    39  28  64 SE5       30.34S                  
TOPEKA BILLARD MOCLDY    39  25  57 S3        30.37S                  
TOPEKA FORBES  MOCLDY    36  26  67 E3        30.36S                  
$$